Location: Unspecified
(44.4377°N, 88.0525°W)
Time: 04:54:09
(UTC-05:00)

Cosmos 2058 - Visible Passes

Search period start: 30 August 2015 00:00
Search period end: 09 September 2015 00:00
Orbit: 566 x 588 km, 82.5° (Epoch: 30 August)

Date Brightness Start Highest point End Pass type
(mag) Time Alt. Az. Time Alt. Az. Time Alt. Az.
30 Aug 5.7 23:50:51 10° N 23:51:43 15° N 23:51:43 15° N visible
31 Aug 5.8 23:54:59 10° N 23:55:50 15° N 23:55:50 15° N visible
01 Sep 5.8 23:59:11 10° N 23:59:57 15° N 23:59:57 15° N visible
03 Sep 5.9 00:03:26 10° NNW 00:04:05 14° NNW 00:04:05 14° NNW visible
04 Sep 6.0 00:07:44 10° NNW 00:08:13 13° NNW 00:08:13 13° NNW visible
04 Sep 5.7 22:35:42 10° NNE 22:36:05 12° NNE 22:36:05 12° NNE visible
05 Sep 6.1 00:12:06 10° NNW 00:12:22 11° NNW 00:12:22 11° NNW visible
05 Sep 5.6 22:39:35 10° NNE 22:40:14 13° NNE 22:40:14 13° NNE visible
06 Sep 5.6 22:43:34 10° N 22:44:24 15° NNE 22:44:24 15° NNE visible
07 Sep 5.5 22:47:38 10° N 22:48:34 16° N 22:48:34 16° N visible
08 Sep 5.6 22:51:46 10° N 22:52:44 17° N 22:52:44 17° N visible
